Location: Gilevgi
(36.8751°N, 30.0581°E)
Time: 07:53:05
(UTC+00:00)

Okean 1-7 Rocket - Pass Details

Date: 15 March 2026
Orbit: 609 x 643 km, 82.5° (Epoch: 18 April)

Event Time Altitude Azimuth Distance (km) Brightness Sun altitude
Rises 17:45:02 0° 237° (WSW) 2,941 7.7 -20.3°
Reaches altitude 10° 17:49:04 10° 273° (W) 2,039 7.3 -21.1°
Maximum altitude 17:50:20 11° 290° (WNW) 1,971 7.3 -21.3°
Drops below altitude 10° 17:51:37 10° 306° (NW) 2,042 7.2 -21.6°
Sets 17:55:41 0° 342° (NNW) 2,954 7.5 -22.3°
